www.pogodaiklimat.ru

Погода и климат >> Архив погоды >> Финляндия >> Йомала аэропорт


ПОГОДА в Йомала аэропорту

  • Прогноз погоды в Йомала аэропорту
  • Монитор погоды в Йомала аэропорту

АРХИВ ПОГОДЫ в Йомала аэропорту

Время (UTC), дата Ветер
(напр.,м/с)
 
Видим.   Явления Облачность Т
(С)
Тd
(С)
f
(%)
Тe
(С)
Тes
(С)
Комфортность P
(гПа)
Po
(гПа)
Тmin
(С)
Tmax
(С)
R
(мм)
R24
(мм)
S
(см)
01 9.06 Ю 2 40 км в посл. час дождь 10/10 2000 м
[]
+14.7 +12.7 88 +14 +14 1015.2 1014.8
02 9.06 ЮЗ 2 60 км в посл. час дождь 8/0
[]
+14.6 +12.2 86 +14 +14 1015.7 1015.3
03 9.06 ЮЗ 2 50 км 5/5 1500 м
[]
+14.5 +12.0 85 +14 +14 1016.1 1015.7
04 9.06 ЮЗ 4 65 км ясно +15.5 +11.8 79 +15 +16 1016.5 1016.1
05 9.06 ЮЗ 5 55 км ясно +15.7 +10.8 73 +15 +16 1017.3 1016.9
06 9.06 ЮЗ 6 50 км ясно +15.7 +10.6 72 +14 +17 1017.6 1017.3 +14.0 +16.4
07 9.06 Ю 7 45 км ясно +15.3 +10.9 75 +14 +16 1018.1 1017.7
08 9.06 Ю 9 45 км ясно +15.1 +11.6 80 +13 +14 1018.4 1018.0
09 9.06 Ю 9 40 км ясно +15.3 +11.5 78 +13 +14 1018.7 1018.3
10 9.06 Ю 10 45 км ясно +15.1 +10.6 74 +13 +13 1018.7 1018.3
11 9.06 Ю 10 40 км ясно +15.6 +10.9 74 +13 +14 1018.3 1017.9
12 9.06 Ю 10 45 км ясно +16.0 +10.7 71 +14 +15 1018.2 1017.8
13 9.06 Ю 9 50 км ясно +15.3 +10.5 73 +13 +14 1017.7 1017.3
14 9.06 Ю 10 40 км ясно +15.1 +10.9 76 +13 +13 1017.5 1017.2
15 9.06 Ю 9 35 км 5/5 1000 м
[]
+13.9 +10.5 80 +11 +11 1017.6 1017.2
16 9.06 Ю 6 40 км 6/6 2000 м
[]
+13.8 +10.7 82 +12 +12 1017.3 1016.9
17 9.06 Ю 6 40 км 4/1 1500 м
[]
+14.0 +10.6 80 +12 +13 1016.9 1016.6
18 9.06 ЮЗ 6 45 км 3/3 2000 м
[]
+13.3 +10.4 83 +11 +11 1017.2 1016.8 +13.2 +16.0
19 9.06 Ю 5 45 км ясно +12.7 +10.3 85 +10 +11 1017.7 1017.3
20 9.06 ЮЗ 4 45 км 10/0 2000 м
[]
+14.0 +10.2 78 +13 +13 1017.8 1017.4
21 9.06 ЮЗ 5 50 км ясно +14.0 +9.5 74 +12 +12 1017.8 1017.5
22 9.06 ЮЗ 6 65 км ясно +13.9 +9.1 73 +12 +12 1018.3 1017.9
23 9.06 ЮЗ 5 55 км ясно +13.0 +8.6 75 +11 +11 1018.7 1018.3
00 10.06 ЮЗ 4 50 км ясно +12.6 +8.1 74 +11 +11 1018.6 1018.2
01 10.06 ЮЗ 5 50 км ясно +12.5 +8.1 75 +10 +10 1018.8 1018.4
02 10.06 ЮЗ 5 55 км ясно +12.3 +8.2 76 +10 +10 1018.8 1018.4
03 10.06 ЮЗ 6 50 км ясно +12.7 +8.3 75 +10 +10 1018.7 1018.3
04 10.06 ЮЗ 6 45 км ясно +13.0 +8.4 74 +11 +11 1019.0 1018.6
05 10.06 ЮЗ 5 50 км ясно +13.7 +8.5 71 +12 +14 1019.0 1018.6
06 10.06 ЮЗ 5 50 км ясно +14.1 +8.5 69 +12 +15 1019.0 1018.6 +12.3 +14.1
07 10.06 ЮЗ 6 50 км ясно +14.4 +8.9 70 +13 +16 1019.1 1018.7
08 10.06 ЮЗ 7 55 км ясно +15.1 +10.0 72 +13 +16 1019.4 1019.0
09 10.06 Ю 7 50 км ясно +14.8 +9.4 70 +13 +16 1019.6 1019.2
10 10.06 Ю 8 45 км ясно +15.3 +9.9 70 +13 +16 1019.8 1019.5
11 10.06 Ю 8 45 км ясно +15.1 +10.3 73 +13 +16 1019.9 1019.5
12 10.06 Ю 8 45 км ясно +15.4 +10.3 72 +14 +16 1019.7 1019.4
13 10.06 Ю 7 50 км ясно +15.5 +11.0 75 +14 +17 1019.7 1019.3
14 10.06 ЮЗ 6 50 км ясно +15.7 +10.2 70 +14 +18 1019.6 1019.2
15 10.06 ЮЗ 7 50 км ясно +15.5 +9.8 69 +14 +16 1019.5 1019.1
16 10.06 ЮЗ 6 55 км ясно +15.3 +9.9 70 +14 +15 1019.5 1019.1
17 10.06 Ю 5 50 км ясно +14.2 +10.1 76 +13 +14 1019.7 1019.3
18 10.06 ЮЗ 4 50 км ясно +14.2 +9.6 74 +13 +13 1019.6 1019.3 +13.9 +16.2
19 10.06 ЮЗ 4 55 км ясно +14.0 +9.6 75 +13 +13 1019.9 1019.5
20 10.06 ЮЗ 2 60 км ясно +14.2 +8.9 70 +14 +14 1020.0 1019.6
21 10.06 Ю 1 50 км ясно +12.4 +8.8 79 +12 +12 1020.4 1020.0
22 10.06 штиль 0 45 км ясно +11.0 +8.3 83 +10 +10 1020.9 1020.5
23 10.06 СЗ 1 29 км ясно +9.1 +7.5 90 +8 +8 1021.0 1020.6
00 11.06 штиль 0 1700 м дымка ясно +8.4 +7.2 92 +7 +7 1021.0 1020.6
01 11.06 СЗ 1 17 км ясно +7.7 +6.6 93 +7 +7 1021.2 1020.8
02 11.06 штиль 0 8000 м в посл. час туман ясно +7.7 +6.1 90 +7 +7 1021.5 1021.1
03 11.06 штиль 0 27 км ясно +8.9 +7.4 90 +8 +9 1021.7 1021.3
04 11.06 штиль 0 45 км ясно +13.1 +10.5 84 +13 +15 1022.1 1021.7
05 11.06 СВ 1 55 км ясно +15.4 +11.4 77 +16 +20 1021.6 1021.2
06 11.06 ЮВ 1 50 км ясно +17.5 +10.6 64 +19 +25 1021.8 1021.5 +6.2 +18.0
07 11.06 Ю 2 55 км ясно +17.2 +11.4 69 +18 +26 1022.3 1021.9
08 11.06 Ю 4 55 км 5/0
[]
+18.2 +11.5 65 +18 +24 1022.3 1022.0
09 11.06 ЮЗ 1 50 км 10/10
[]
+18.8 +11.4 62 +21 +21 комфорт 1022.5 1022.1
10 11.06 СВ 3 30 км 9/0
[]
+19.1 +10.8 59 +20 +27 1022.7 1022.3
11 11.06 С 4 60 км 9/9
[]
+19.6 +9.9 53 +21 +22 комфорт 1023.3 1022.9
12 11.06 СВ 6 50 км 9/0
[]
+17.5 +8.5 55 +17 +20 1023.4 1023.0
13 11.06 С 5 65 км 10/0
[]
+16.7 +6.8 52 +16 +19 1023.7 1023.3
14 11.06 С 5 >70 км 6/6
[]
+16.7 +6.0 49 +16 +16 1023.3 1022.9
15 11.06 С 6 50 км 9/0
[]
+16.2 +4.7 46 +15 +16 1023.0 1022.6
16 11.06 С 8 >70 км 8/0
[]
+15.5 +7.2 58 +14 +14 1022.9 1022.5
17 11.06 С 6 >70 км 8/0
[]
+14.2 +7.1 62 +12 +13 1023.1 1022.7
18 11.06 С 6 50 км 9/5
[]
+13.9 +5.9 58 +12 +12 1023.1 1022.7 +13.9 +19.7
19 11.06 С 5 >70 км 9/0
[]
+13.2 +5.8 61 +11 +11 1022.8 1022.4
20 11.06 С 5 >70 км 10/1
[]
+13.0 +5.9 62 +11 +11 1022.9 1022.5
21 11.06 С 5 50 км 10/10
[]
+13.3 +6.5 63 +11 +11 1022.7 1022.3
22 11.06 С 6 >70 км 9/0
[]
+13.8 +7.3 65 +12 +12 1022.7 1022.3
23 11.06 С 6 65 км 9/0
[]
+13.9 +6.8 62 +12 +12 1023.2 1022.8
00 12.06 СВ 7 50 км 9/9
[]
+13.1 +5.4 60 +11 +11 1023.9 1023.5
01 12.06 СВ 9 >70 км 9/9
[]
+12.0 +4.0 58 +9 +9 1023.5 1023.1
02 12.06 СВ 8 >70 км 10/0
[]
+11.7 +3.7 58 +9 +9 1023.5 1023.1
03 12.06 СВ 6 50 км 10/10
[]
+11.3 +3.3 58 +9 +9 1024.1 1023.7
04 12.06 СВ 8 >70 км 10/0
[]
+11.7 +3.5 57 +9 +9 1024.2 1023.8
05 12.06 СВ 7 65 км 9/6
[]
+11.7 +4.4 61 +9 +9 1024.3 1023.9
06 12.06 СВ 7 50 км 8/8
[]
+12.0 +4.6 61 +9 +10 1024.4 1024.0 +11.3 +14.1
07 12.06 СВ 6 >70 км 9/0
[]
+12.5 +5.0 60 +10 +12 1024.8 1024.4
08 12.06 СВ 5 >70 км в посл. час дождь 9/9
[]
+12.5 +5.9 64 +10 +11 1025.1 1024.7
09 12.06 С 5 50 км слаб. ливневой дождь 9/1 1000 м
[]
+12.9 +7.0 67 +11 +14 1025.6 1025.2
10 12.06 СВ 6 60 км 9/0
[]
+13.6 +7.1 65 +12 +15 1024.4 1024.0
11 12.06 СВ 7 65 км 9/9
[]
+15.3 +7.0 58 +14 +14 1024.1 1023.7
12 12.06 СВ 6 50 км 10/10
[]
+14.8 +7.2 60 +13 +13 1024.3 1023.9
13 12.06 СВ 6 55 км 8/8
[]
+15.7 +7.9 60 +14 +15 1023.3 1022.9
14 12.06 СВ 6 >70 км 10/0
[]
+15.8 +8.0 60 +15 +16 1022.4 1022.0
15 12.06 СВ 5 50 км 8/8
[]
+16.7 +8.9 60 +16 +17 1022.5 1022.1
16 12.06 СВ 5 >70 км 9/9
[]
+16.3 +8.9 62 +15 +16 1022.3 1021.9
17 12.06 СВ 4 >70 км 9/8
[]
+16.1 +8.5 61 +15 +16 1022.2 1021.9
18 12.06 В 3 50 км 10/10
[]
+15.4 +8.8 65 +15 +15 1021.8 1021.5 +12.0 +16.9
19 12.06 В 4 >70 км 10/10
[]
+14.8 +7.2 60 +14 +14 1021.4 1021.0
20 12.06 В 4 65 км 9/0
[]
+14.4 +7.2 62 +13 +13 1021.3 1020.9
21 12.06 В 5 50 км 8/8
[]
+14.6 +6.5 58 +13 +13 1020.8 1020.4
22 12.06 В 6 65 км 4/0
[]
+14.1 +6.5 60 +12 +12 1020.4 1020.0
23 12.06 В 6 65 км в посл. час дождь 9/4 1000 м
[]
+13.8 +6.1 60 +12 +12 1019.9 1019.5
00 13.06 В 6 50 км 10/10 1000 м
[]
+13.6 +6.5 62 +12 +12 1019.3 1019.0
01 13.06 В 6 29 км слаб. дождь 10/0 1000 м
[]
+12.2 +7.9 75 +10 +10 1018.6 1018.2
02 13.06 В 4 30 км слаб. дождь 9/3 600 м
[]
+11.3 +8.5 83 +9 +9 1016.4 1016.0
03 13.06 В 4 45 км в посл. час дождь 9/9
[]
+11.7 +8.8 82 +10 +10 1016.8 1016.4
04 13.06 В 7 50 км ясно +12.4 +8.9 79 +10 +10 1015.4 1015.1
05 13.06 В 6 55 км 9/9 600 м
[]
+13.3 +10.0 80 +11 +11 1015.7 1015.3
06 13.06 В 5 50 км 10/10 300 м
[]
+13.8 +10.8 82 +12 +12 1015.0 1014.6 +11.1 +15.4
07 13.06 В 6 45 км 10/0 300 м
[]
+13.9 +11.1 83 +12 +13 1014.9 1014.5
08 13.06 В 6 45 км 9/4 300 м
[]
+15.1 +12.0 82 +13 +15 1014.1 1013.7
09 13.06 ЮВ 5 45 км 10/10 300 м
[]
+15.8 +13.1 84 +15 +15 1015.5 1015.1
10 13.06 В 6 26 км слаб. ливневой дождь 10/0 200 м
[]
+14.3 +12.9 91 +12 +15 1014.6 1014.2
11 13.06 В 2 11 км ливневой дождь 10/0 100 м
[]
+13.5 +12.6 94 +13 +20 1015.4 1015.0
12 13.06 В 5 16 км дождь 10/10 200 м
[]
+13.9 +13.0 94 +12 +12 1015.1 1014.7
13 13.06 В 7 25 км слаб. дождь 9/6 100 м
[]
+14.2 +13.4 95 +12 +13 1013.7 1013.3
14 13.06 ЮВ 6 29 км 9/9 100 м
[]
+15.5 +14.1 91 +14 +14 1013.7 1013.3
15 13.06 В 6 30 км 10/10 200 м
[]
+15.6 +14.0 90 +14 +14 1013.5 1013.1
16 13.06 ЮВ 5 35 км 10/0 200 м
[]
+15.7 +13.8 88 +14 +16 1013.6 1013.2
17 13.06 В 4 35 км 10/0 300 м
[]
+15.9 +14.0 88 +15 +16 1013.0 1012.6
18 13.06 В 3 35 км 10/10 200 м
[]
+15.6 +13.7 88 +15 +15 1013.7 1013.3 +13.5 +16.2
19 13.06 В 3 21 км 10/0 200 м
[]
+14.9 +13.4 91 +14 +14 1013.8 1013.4
20 13.06 В 3 17 км 10/0 100 м
[]
+14.6 +13.5 93 +14 +14 1013.5 1013.1
21 13.06 В 3 16 км 10/10 100 м
[]
+14.1 +13.2 94 +13 +13 1014.2 1013.8
22 13.06 СВ 2 3800 м дымка 10/0 50 м
[]
+13.5 +12.8 96 +13 +13 1014.1 1013.7
23 13.06 СВ 2 400 м туман ?/? +13.4 +13.1 98 +13 +13 1014.1 1013.7
00 14.06 З 1 600 м туман ?/? +13.6 +13.4 99 +14 +14 1013.9 1013.5
01 14.06 З 1 1700 м в посл. час туман 10/0 50 м
[]
+13.1 +12.8 98 +13 +13 1014.0 1013.6
02 14.06 З 1 2300 м дымка 10/0 50 м
[]
+13.3 +13.0 98 +13 +13 1014.2 1013.8
03 14.06 СЗ 2 3500 м дымка 10/10 50 м
[]
+13.4 +13.0 97 +13 +13 1014.0 1013.6
04 14.06 З 1 1400 м дымка ?/? +13.2 +12.8 97 +13 +13 1014.8 1014.4
05 14.06 З 2 2700 м дымка 10/0 50 м
[]
+13.0 +12.7 98 +12 +14 1014.7 1014.3
06 14.06 З 4 4300 м дымка 10/10 50 м
[]
+11.1 +10.5 96 +9 +9 1015.0 1014.6 +11.1 +15.6
07 14.06 З 4 5000 м дымка 10/0 50 м
[]
+11.7 +11.0 95 +9 +12 1015.5 1015.2
08 14.06 СЗ 3 30 км 10/0 50 м
[]
+12.1 +11.2 94 +10 +15 1016.2 1015.8
09 14.06 З 4 50 км 10/10 100 м
[]
+12.9 +11.6 92 +11 +11 1016.9 1016.5
10 14.06 З 4 15 км 10/0 100 м
[]
+11.5 +10.4 93 +9 +14 1017.7 1017.3
11 14.06 З 4 3100 м дымка 10/0 50 м
[]
+11.3 +10.5 95 +9 +14 1018.3 1017.9
12 14.06 СЗ 5 8000 м дымка 10/10 50 м
[]
+12.3 +10.9 91 +10 +10 1017.8 1017.4
13 14.06 СЗ 5 40 км 10/0 100 м
[]
+12.4 +10.6 89 +10 +13 1018.5 1018.1
14 14.06 З 4 40 км 10/0 200 м
[]
+13.1 +10.6 85 +11 +14 1018.6 1018.3
15 14.06 СЗ 5 50 км 10/10 300 м
[]
+13.6 +10.7 83 +12 +12 1018.8 1018.4
16 14.06 СЗ 4 50 км 10/0 300 м
[]
+14.0 +10.9 82 +13 +13 1018.5 1018.1
17 14.06 СЗ 3 50 км 10/0 300 м
[]
+13.9 +10.8 82 +13 +14 1018.6 1018.2
18 14.06 СЗ 3 50 км 9/9 200 м
[]
+13.5 +10.8 84 +12 +12 1018.8 1018.5 +11.1 +14.5
19 14.06 С 3 50 км 4/0 200 м
[]
+12.4 +10.5 88 +11 +11 1018.8 1018.4
20 14.06 СЗ 1 45 км 10/0 200 м
[]
+12.0 +10.4 90 +12 +12 1018.9 1018.5
21 14.06 Ю 3 30 км 10/10 100 м
[]
+10.8 +10.0 95 +9 +9 1019.4 1019.0
22 14.06 штиль 0 4700 м дымка 3/3 50 м
[]
+10.0 +9.1 94 +9 +9 1019.1 1018.7
23 14.06 штиль 0 1000 м туман 10/0 50 м
[]
+9.0 +8.2 95 +8 +8 1018.7 1018.3
00 15.06 Ю 2 2400 м в посл. час туман 8/8 100 м
[]
+9.1 +8.5 96 +7 +7 1018.7 1018.4
01 15.06 Ю 2 1200 м дымка ?/? +10.4 +9.9 97 +9 +9 1018.5 1018.1
02 15.06 Ю 1 300 м туман ?/? +10.1 +9.7 97 +9 +9 1018.1 1017.7
03 15.06 Ю 2 20 км в посл. час туман ясно +11.1 +10.8 98 +10 +10 1017.8 1017.4
04 15.06 З 3 55 км ясно +14.2 +11.2 82 +13 +15 1017.9 1017.5
05 15.06 СЗ 3 55 км ясно +16.1 +11.5 74 +16 +18 1017.8 1017.4
06 15.06 З 3 50 км ясно +17.3 +11.6 69 +17 +22 1017.7 1017.3 +9.0 +17.7
07 15.06 З 3 60 км 6/0
[]
+17.7 +11.7 68 +18 +23 1017.8 1017.4
08 15.06 З 3 50 км 9/0
[]
+18.3 +11.6 65 +19 +24 1018.1 1017.7
09 15.06 З 3 50 км 6/1
[]
+19.8 +11.9 60 +22 +28 комфорт 1018.0 1017.6
10 15.06 З 3 60 км ясно +20.9 +12.0 57 +24 +35 комфорт 1017.7 1017.3
11 15.06 З 3 55 км ясно +22.5 +10.0 45 +24 +36 комфорт 1017.9 1017.5
12 15.06 Ю 6 50 км ясно +19.6 +12.2 62 +21 +26 комфорт 1017.8 1017.4
13 15.06 Ю 6 60 км ясно +19.1 +11.7 62 +20 +24 1017.6 1017.2
14 15.06 Ю 4 65 км ясно +18.6 +11.7 64 +19 +25 1017.7 1017.3
15 15.06 Ю 3 50 км ясно +18.6 +12.1 66 +19 +25 1017.6 1017.2
16 15.06 Ю 2 65 км ясно +18.4 +11.6 65 +19 +23 1017.0 1016.6
17 15.06 Ю 5 65 км ясно +16.8 +11.6 71 +16 +17 1017.1 1016.7
18 15.06 ЮЗ 2 50 км ясно +16.7 +11.5 71 +17 +18 1016.9 1016.5 +16.7 +22.5
19 15.06 С 1 60 км ясно +16.1 +11.2 73 +17 +17 1016.7 1016.3
20 15.06 штиль 0 40 км ясно +14.6 +12.0 84 +14 +14 1016.3 1015.9
21 15.06 С 1 30 км ясно +12.2 +10.6 90 +12 +12 1016.1 1015.7
22 15.06 С 1 24 км ясно +11.6 +10.4 92 +11 +11 1015.9 1015.5
23 15.06 С 2 15 км в посл. час туман ясно +10.6 +9.6 94 +9 +9 1016.1 1015.8
00 16.06 С 2 10 км ясно +11.0 +10.2 95 +10 +10 1016.3 1015.9

 

Местоположение метеостанции Йомала аэропорт (Финляндия): широта 60.12 долгота 19.90 высота над уровнем моря 5 м.

В архиве по умолчанию представлена погода в Йомала аэропорту за последнюю неделю. Архивные данные за месяц целиком и за предыдущие месяцы, начиная с января 2011 года, Вы можете получить, выбрав интересующий диапазон дат из раскрывающегося списка и нажав кнопку "Ввод!".


*Определитесь, кто Вы:
робот инопланетянин человек

Внимание! Время в таблицах - всемирное. Для получения местного времени необходимо прибавить поправку, которая равна 1 ч.

Смотрите также архив погоды в соседних городах и на ближайших метеорологических станциях:

Погода в Йомале (Финляндия) (8 км)
Погода в Лемланд Нихамн (Финляндия) (18 км)
Погода в Логнес Харбор (Финляндия) (22 км)
Погода на Хаммарланде (Финляндия) (47 км)
Погода в Содерарме (Швеция) (49 км)
Погода в Кумлинге (Финляндия) (50 км)
Погода в Кокар Богскар (Финляндия) (73 км)
Погода в Сванберге (Швеция) (78 км)
Погода в Свенска Хогарна (Швеция) (78 км)
Погода в Свенска Хогарна АМС (Швеция) (80 км)

Пояснения к столбцам:

Ветер - указаны скорость ветра в м/с - средняя за 10 мин, порывы в срок и между сроками (в фигурных скобках) и направление, откуда дует ветер: С - северный, СВ - северо-восточный, В - восточный, ЮВ - юго-восточный, Ю - южный, ЮЗ - юго-западный, З - западный, СЗ - северо-западный.
Видимость - горизонтальная дальность видимости в метрах или километрах. При видимости от 1 до 10 км при отсутствии осадков обычно наблюдается дымка, при ухудшении видимости до 1 км и менее - туман. В сухую погоду видимость может ухудшаться дымом, пылью или мглою.
Явления - указаны атмосферные явления, наблюдавшиеся в срок или в последний час перед сроком; фигурными скобками обозначены явления, наблюдавшиеся между сроками (за 1-3 часа до срока); квадратными скобками обозначены град или гололедные отложения с указанием их диаметра в мм.
Облачность - указаны через наклонную черту общая и нижняя облачность в баллах и высота нижней границы облаков в метрах; квадратными скобками обозначены формы облаков: Ci - перистые, Cs - перисто-слоистые, Cc - перисто-кучевые, Ac - высококучевые, As - высокослоистые, Sc - слоисто-кучевые, Ns - слоисто-дождевые, Cu - кучевые, Cb - кучево-дождевые. Подробнее классификацию облаков см. в Атласе облаков (PDF).
T - Температура воздуха - температура, измеренная на высоте 2 м над землей.
Td - Температура точки росы - температура, при понижении до которой содержащийся в воздухе водяной пар достигнет насыщения.
f - Относительная влажность воздуха - влажноcть воздуха, измеренная на высоте 2 м над землей.
Te - Эффективная температура - температура, которую ощущает одетый по сезону человек в тени. Характеристика душности погоды. При расчете учитывается влияние влажности воздуха и скорости ветра на теплоощущения человека.
Tes - Эффективная температура на солнце - температура, которую ощущает человек, с поправкой на солнечный нагрев. Характеристика знойности погоды. Зависит от высоты солнца над горизонтом, облачности и скорости ветра. Ночью, в пасмурную погоду, а также при ветре 12 м/с и более поправка равна нулю.
P - Атмосферное давление - приведенное к уровню моря атмосферное давление.
Po - Атмосферное давление - измеренное на уровне метеостанции атмосферное давление.
Tmin - Минимальная температура - минимум температуры воздуха на высоте 2 м над землей.
Tmax - Максимальная температура - максимум температуры воздуха на высоте 2 м над землей.
R - Количество осадков - Количество выпавших осадков за период времени, мм. При наведении курсора мыши на число - период времени, за который выпало указанное количество осадков.
R24 - Количество осадков - Количество выпавших осадков за 24 часа, мм.
S - Снежный покров - Высота снежного покрова, см. При наведении курсора мыши на число - состояние снежного покрова и степень покрытия местности в баллах.